This demonstration page uses our WeatherBlox Daily Observations layout. Learn more.

Left ArrowRight Arrow

39.08367, -84.50855

Hourly Observations for January 4, 2015

Temp ( °F °C ) Dew Point ( °F °C ) Humidity (%) Winds ( mph kmh ) Pressure ( in mb ) Visibility ( mi km ) Precip ( " mm )
12:53 am 00:53 Cloudy with Light Rain 59 15 57 13.9 93 93 SSW 13 20 29.78 1009 10 16.0934 0 0.0254
1:20 am 01:20 Cloudy with Light Rain 59 15 57 14 94 94 S 15 24 29.77 1008 7 11.26538 0 0
1:36 am 01:36 Cloudy 59 15 57 14 94 94 S 13 20 29.77 1008 10 16.0934 0 0
1:53 am 01:53 Cloudy 59 15 57 13.9 93 93 S 15 24 29.76 1008 10 16.0934 0 0.0254
2:33 am 02:33 Cloudy 59 15 56 13.3 90 90 S 15 24 29.74 1007 10 16.0934 0.01 0.254
2:51 am 02:51 Cloudy 59 15 55 13 88 88 S 9 15 29.74 1007 10 16.0934 0.01 0.254
2:53 am 02:53 Cloudy 59 15 56 13.3 90 90 S 9 15 29.73 1007 10 16.0934 0.01 0.254
3:53 am 03:53 Cloudy with Light Rain 58 14.4 56 13.3 93 93 S 13 20 29.71 1006 10 16.0934 0.04 1.016
4:53 am 04:53 Cloudy with Light Rain 59 15 57 13.9 93 93 WSW 16 26 29.7 1006 6 9.65604 0 0.0254
4:58 am 04:58 Cloudy with Light Rain 55 13 55 13 100 100 W 21 33 29.71 1006 2 3.21868 0 0
5:05 am 05:05 Cloudy with Heavy Rain 55 12.8 54 12.2 96 96 W 14 22 29.71 1006 1.25 2.011675 0.14 3.556
5:10 am 05:10 Cloudy with Light Rain 55 13 54 12 94 94 W 16 26 29.74 1007 3 4.82802 0 0
5:17 am 05:17 Cloudy with Light Rain 55 12.8 53 11.7 93 93 WSW 14 22 29.71 1006 10 16.0934 0.14 3.556
5:35 am 05:35 Cloudy 55 12.8 53 11.7 93 93 WSW 7 11 29.74 1007 10 16.0934 0.14 3.556
5:53 am 05:53 Cloudy 55 12.8 53 11.7 93 93 WSW 8 13 29.73 1007 10 16.0934 0.14 3.556
6:23 am 06:23 Cloudy 54 12.2 53 11.7 97 97 SW 7 11 29.77 1008 10 16.0934 0 0
6:53 am 06:53 Cloudy with Light Rain 54 12.2 52 11.1 93 93 W 17 28 29.75 1008 8 12.87472 0.01 0.254
7:15 am 07:15 Cloudy 51 10.6 48 8.9 89 89 W 17 28 29.83 1010 10 16.0934 0 0.0254
7:53 am 07:53 Cloudy 49 9.4 45 7.2 86 86 W 14 22 29.83 1010 10 16.0934 0 0.0254
8:53 am 08:53 Mostly Cloudy 48 8.9 43 6.1 83 83 WSW 12 19 29.86 1011 10 16.0934 0 0
9:53 am 09:53 Mostly Cloudy 47 8.3 41 5 80 80 WSW 17 28 29.9 1013 10 16.0934 0 0
10:53 am 10:53 Cloudy 45 7.2 38 3.3 77 77 W 18 30 29.95 1014 10 16.0934 0 0
11:53 am 11:53 Cloudy 43 6.1 36 2.2 76 76 W 15 24 29.96 1015 10 16.0934 0 0
12:53 pm 12:53 Cloudy with Light Rain 41 5 35 1.7 79 79 W 13 20 29.96 1015 7 11.26538 0.01 0.254
1:53 pm 13:53 Cloudy 39 3.9 34 1.1 82 82 WSW 12 19 29.98 1015 10 16.0934 0.02 0.508
2:53 pm 14:53 Cloudy with Light Rain 38 3.3 33 0.6 83 83 WSW 21 33 30.02 1017 10 16.0934 0 0.0254
3:19 pm 15:19 Cloudy with Light Rain 37 2.8 34 1.1 89 89 W 17 28 30.06 1018 5 8.0467 0.01 0.254
3:53 pm 15:53 Cloudy with Light Rain 38 3.3 33 0.6 83 83 W 15 24 30.08 1019 10 16.0934 0.01 0.254
4:03 pm 16:03 Cloudy with Light Rain 36 2 32 0 87 87 W 21 33 30.09 1019 6 9.65604 0 0
4:27 pm 16:27 Cloudy 36 2.2 32 0 86 86 W 16 26 30.12 1020 10 16.0934 0 0.0254
4:53 pm 16:53 Cloudy 37 2.8 31 -0.6 79 79 W 17 28 30.13 1020 10 16.0934 0 0.0254
5:21 pm 17:21 Cloudy 36 2.2 32 0 86 86 WSW 16 26 30.15 1021 10 16.0934 0 0
5:53 pm 17:53 Cloudy 36 2.2 31 -0.6 82 82 W 15 24 30.19 1022 10 16.0934 0 0.0254
6:53 pm 18:53 Cloudy 35 1.7 29 -1.7 78 78 W 20 31 30.22 1023 10 16.0934 0 0
7:53 pm 19:53 Cloudy 33 0.6 26 -3.3 75 75 W 16 26 30.26 1025 10 16.0934 0 0
8:03 pm 20:03 Cloudy 34 1 25 -4 70 70 W 16 26 30.3 1026 10 16.0934 0 0
8:19 pm 20:19 Cloudy 31 -0.6 25 -3.9 79 79 NW 12 19 30.3 1026 10 16.0934 0 0
8:53 pm 20:53 Cloudy 30 -1.1 22 -5.6 72 72 WNW 20 31 30.32 1027 10 16.0934 0 0
9:53 pm 21:53 Cloudy 27 -2.8 19 -7.2 72 72 W 22 35 30.38 1029 10 16.0934 0 0
10:53 pm 22:53 Cloudy 26 -3.3 18 -7.8 71 71 W 16 26 30.41 1030 10 16.0934 0 0
11:53 pm 23:53 Cloudy 24 -4.4 16 -8.9 71 71 W 20 31 30.43 1031 10 16.0934 0 0

Powered by AerisWeather